Location: Arbon
(43.0005°N, 0.7472°E)
Time: 17:07:24
(UTC+00:00)

Cosmos 1745 Rocket - Pass Details

Date: 07 August 2020
Orbit: 952 x 999 km, 83.0° (Epoch: 22 September)

Event Time Altitude Azimuth Distance (km) Brightness Sun altitude
Rises 04:15:46 0° 350° (N) 3,713 7.3 -7.2°
Reaches altitude 10° 04:18:19 10° 349° (N) 2,754 6.6 -6.8°
Maximum altitude 04:24:37 76° 266° (W) 1,011 4.0 -5.8°
Drops below altitude 10° 04:30:48 10° 181° (S) 2,703 6.1 -4.8°
Sets 04:33:17 0° 180° (S) 3,639 6.7 -4.4°
